Regional Weather Roundup
Issued by NWS

Home | Current Version | Previous Version | Text Only | Print | Product List | Glossary On
Versions: 1 2 3 4 5 6 7 8 9 10 11 12 13 14 15 16 17 18 19 20 21 22 23 24 25 26 27 28 29 30 31 32 33 34 35 36 37 38 39 40 41 42 43 44 45 46 47 48 49 50
000
ASHW40 PHFO 242310
RWRHI

WEATHER ROUNDUP FOR HAWAII
NATIONAL WEATHER SERVICE HONOLULU HI
100 PM HST THU JUL 24 2014

THIS IS AN AUTOMATED REPORT THAT HAS NOT BEEN QUALITY CONTROLLED.

NOTE..."FAIR" INDICATES FEW OR NO CLOUDS BELOW 12,000 FEET WITH NO
SIGNIFICANT WEATHER AND/OR OBSTRUCTIONS TO VISIBILITY.

* - THESE SITES REPORT LIMITED FIELDS

HIZ001>004-250000-
KAUAI-NIIHAU-

CITY           SKY/WX    TMP DP  RH WIND       PRES   REMARKS
LIHUE APT      MOSUNNY   83  70  64 NE20      30.08F
PORT ALLEN*      N/A     86 N/A N/A E16G23      N/A
POIPU*           N/A     86 N/A N/A NE10G22     N/A
PRINCEVILLE*   NOT AVBL
KOKOLE POINT*  NOT AVBL
MOLOAA DAIRY*  NOT AVBL
WAIMEA HTS*    NOT AVBL
PUU OPAE*      NOT AVBL
PUU LUA*       NOT AVBL
MAKAHA RIDGE*  NOT AVBL
$$

HIZ005>011-250000-
OAHU-

CITY           SKY/WX    TMP DP  RH WIND       PRES   REMARKS
HONOLULU       MOSUNNY   87  63  44 E15G24    30.03F
KALAELOA       PTSUNNY   87  64  46 NE8G16    30.04F
KANEOHE MCB    SUNNY     81  66  61 E12G17    30.06F
WHEELER FIELD  PTSUNNY   80  65  60 NE17      30.05F
BELLOWS*       NOT AVBL
KAHUKU*        NOT AVBL
WHEELER*       NOT AVBL
WAIANAE HARBOR NOT AVBL
DILLINGHAM*      N/A     91  68  46 NE10G18     N/A  HX  95
KAHUKU TRN*      N/A     81  68  65 E12G25      N/A
KAWAILOA*      NOT AVBL
KII*             N/A     82  70  65 CALM        N/A
MAKUA RANGE*     N/A     86  64  48 NE12G36     N/A
OAHU FOREST NW NOT AVBL
SCHOFIELD BRK*   N/A     79  63  57 MISG        N/A
SCHOFIELD S*   NOT AVBL
WAIANAE VLY*   NOT AVBL
KUAOKALA*      NOT AVBL
HONOULIUULI*   NOT AVBL
MOKUOLOE IS*     N/A    N/A N/A N/A MISG        N/A
PALEHUA*       NOT AVBL
WAIAWA PHB*    NOT AVBL
$$

HIZ012>013-250000-
MOLOKAI-

CITY           SKY/WX    TMP DP  RH WIND       PRES   REMARKS
MOLOKAI AIRPT  MOSUNNY   81  71  71 NE13G23   30.05F
KALAUPAPA      NOT AVBL
MAKAPULAPAI*   NOT AVBL
MOLOKAI 1*     NOT AVBL
PUU ALII*      NOT AVBL
$$

HIZ016-250000-
KAHOOLAWE-

CITY           SKY/WX    TMP DP  RH WIND       PRES   REMARKS
KAHOOLAWE*     NOT AVBL
HAKIOAWA*      NOT AVBL
HONOKANAIA*      N/A     84  69  60 E20G30    30.03F
KANELOA*         N/A     79  66  65 E21G33    30.13S
KEALIALALO*    NOT AVBL
LUA MAKIKA*    NOT AVBL
$$

HIZ014>015-250000-
LANAI-

CITY           SKY/WX    TMP DP  RH WIND       PRES   REMARKS
LANAI CITY     FAIR      83  65  54 NE22G29   30.08S
LANAI 1*       NOT AVBL
$$

HIZ017>028-250000-
MAUI-

CITY           SKY/WX    TMP DP  RH WIND       PRES   REMARKS
KAHULUI        MOSUNNY   86  68  54 NE24G31   30.03F
KAPALUA-W MAUI MOSUNNY   84  68  58 NE21G28   30.03F
HANA AIRPORT   MOSUNNY   82  68  61 NE6       30.08S
HANA*          NOT AVBL
HALEAKALA SUMM   N/A     54  21  28 E23         N/A
MAALAEA BAY*   NOT AVBL
HALEAKALA*     NOT AVBL
KAUPO GAP*     NOT AVBL
KULA 1*          N/A     61  58  90 NW3G10      N/A
$$

HIZ023>026-250000-
BIG ISLAND OF HAWAII COAST AND LOWER SLOPES-

CITY           SKY/WX    TMP DP  RH WIND       PRES   REMARKS
KAILUA KONA    MOSUNNY   86  71  60 SW8       29.98F HX  91
HILO           PTSUNNY   83  71  67 NE12      30.03F
HONOKAA*       NOT AVBL
KAWAIHAE MWT*  NOT AVBL
KAWAIHAE*        N/A     90 N/A N/A E14G23      N/A
SOUTH POINT*   NOT AVBL
UPOLU AIRPORT* NOT AVBL
KAMUELA*       LGT RAIN  68  66  94 NE9       30.12S
HAKALAU*         N/A     66  58  76 E5G12       N/A
KALOKO-HONOKO* NOT AVBL
PALI 2*          N/A     77  64  65 N24G35      N/A
KEALAKOMO*       N/A     84  72  65 E18G29      N/A
KAUPULEHU*     NOT AVBL
KAPAPALA*        N/A     80  68  67 E10G21      N/A
LOWER KAHUKU*  NOT AVBL
PUHE CS*       NOT AVBL
PUHO CS*       NOT AVBL
PTA KEAMUKU*     N/A     72  63  73 NE20G28     N/A
WAIKOLOA*      NOT AVBL
$$

HIZ027>028-250000-
BIG ISLAND OF HAWAII INTERIOR AND SUMMMITS-

CITY           SKY/WX    TMP DP  RH WIND       PRES   REMARKS
BRADSHAW FIELD MOSUNNY   73  53  50 E7G23     30.34F
MK VISITOR CEN NOT AVBL
MAUNA KEA*       N/A     48   3  15 E16         N/A
MAUNA LOA*       N/A     61   3  10 MISG        N/A
MAUNA LOA 1*   NOT AVBL
PTA KIPUKA*      N/A     72  59  64 NW8G16      N/A
PTA RANGE 17*    N/A    N/A N/A N/A W13G18      N/A
PTA WEST*        N/A     73  63  68 NW8G18      N/A
NENE CABIN*    NOT AVBL
AHUMOA*        NOT AVBL
PTA PORTABLE*  NOT AVBL
PUU MALI*      NOT AVBL
$$

HIC003-250000-
NORTHWEST ISLANDS-

CITY           SKY/WX    TMP DP  RH WIND       PRES   REMARKS
MIDWAY ISLAND  MOSUNNY   88  73  62 SE9       30.17F HX  96
MIDWAY NOS*    NOT AVBL
FRENCH FRIGATE NOT AVBL
$$

PHZ110>124-180-250000-
BUOY REPORTS

STATION/POSITION TIME  TEMP    WIND        PRES    WAVE   SWELL
                       AIR SEA DIR/SP/G            HT/PER HT/DIR
                 (UTC) (F)     (DEG/KT/KT) (MB)    (FT/S) (FT/D)
BUOY 51001       NOT AVBL
BUOY 51101       NOT AVBL
BUOY 51100       2300   76 78   50/ 12/ 14 1018.1F
BUOY 51003       2200   81 81   50/ 12/ 14 1016.8F   7/ 9   7
BUOY 51004       2225   78 80   70/ 14/ 16 1014.7F   6/ 8   5/ 80
BARBERS PT BUOY  NOT AVBL
WAIMEA BAY BUOY  2300      79                N/A     5/ 8
KAILUA BAY BUOY  2300      80                N/A     6/ 8   2/ 70
LANAI BUOY       2300      80                N/A     3/17   2/210
BARBERS PT 2     2300      81                N/A     3/ 9   2/170
PAUWELA MAUI     2300      79                N/A     6/ 8   2/ 70
HILO             NOT AVBL
KANEOHE BAY BUOY 2300      79                N/A     6/ 8
HANALEI KAUAI    NOT AVBL
KAHULUI HARBOR   2300   78 80   30/ 16/ 20 1017.1S
HONOLULU HARBOR  2300   83      70/  6/ 13 1017.2F
KILO NALU        NOT AVBL
HILO HARBOR      2300   80      50/ 11/ 13 1016.6F
MOKUOLOE         2300      82              1018.0F
NAWILIWILI       2300      81                N/A
WHOTS BUOY       NOT AVBL
BUOY 51028       NOT AVBL
$$

......................KEY........................................
  SKY/WX - SKY CONDITIONS/PRESENT WEATHER
  TMP    - TEMPERATURE IN FAHRENHEIT
  DWPT   - DEWPOINT IN FAHRENHEIT
  RH     - RELATIVE HUMIDITY IN PERCENT
  WIND   - DIRECTION AND SPEED /MPH FOR ISLANDS...KTS FOR BUOYS/
  PRES   - MEAN SEA LEVEL PRESSURE IN INCHES OF HG
  VSB    - VISIBILITY IN MILES
  HX     - HEAT INDEX
  WCI    - WIND CHILL INDEX
  VRB    - VARIABLE WIND DIRECTION
  N/A    - NOT AVAILABLE


USA.gov is the U.S. government's official web portal to all federal, state and local government web resources and services.